[[{"header":{"parameterUnit":"m.s-1","parameterCategory":1,"la1":30.2991,"la2":30.254,"lo1":-89.0895,"lo2":-89.0444,"dy":0.0017,"dx":0.0017,"nx":28,"ny":28,"refTime":"2025-01-28T09:00:00:Z","depth":0,"parameterNumber":2,"parameterNumberName":"U-component_of_WINDS"},"data":[0,0,0,0,0,0,0,0,0,0,0,0,0,0,0,0,0,0,0,0,0,0,0,0,0,0,0,0,0,0,0,0,0,0,0,0,0,0,0,0,0,0,0,0,0,0,0,0,0,0,0,0,0,0,0,0,0,0,1.0697,1.0698,0,1.075,1.0751,1.0751,1.0742,1.0741,1.074,1.0739,1.0796,1.0798,1.08,0,0,0,0,0,0,0,0,0,0,0,0,0,1.0589,1.0591,1.0697,1.0698,1.0698,1.075,1.0751,1.0751,1.0742,1.0741,1.0739,1.0738,1.0795,1.0798,1.0801,0,0,0,0,0,0,0,0,0,0,0,0,0,1.0639,1.0592,1.0697,1.07,1.0701,1.075,1.0751,1.0752,1.0742,1.0741,1.0739,1.0738,1.0794,1.0797,1.0801,1.0852,0,0,1.0812,1.0814,0,0,0,0,0,0,0,0,1.0636,1.0643,1.0699,1.07,1.0701,1.0738,1.0733,1.0785,1.0742,1.0726,1.0739,1.0737,1.0778,1.0783,1.0796,1.0854,1.0857,1.0812,1.0814,1.0816,1.0817,0,0,0,0,0,0,0,1.0632,1.064,1.0718,1.07,1.0701,1.0699,1.0704,1.0743,1.076,1.0728,1.0727,1.0733,1.0778,1.0792,1.0797,1.0858,1.0812,1.0815,1.0818,1.0819,1.0959,1.096,0,0,0,0,0,0,1.0628,1.0637,1.0716,1.072,1.0664,1.0702,1.0708,1.0727,1.0759,1.0762,1.0734,1.0733,1.0787,1.0793,1.0799,1.0859,1.0816,1.0819,1.0821,1.0957,1.0959,1.0961,0,0,0,0,0,0,1.0626,1.0635,1.0714,1.0678,1.0688,1.0705,1.0727,1.0729,1.0743,1.0764,1.0767,1.0746,1.0786,1.0794,1.0838,1.0861,1.0821,1.0824,1.0956,1.0958,1.096,1.0981,0,0,0,0,0,0,1.0623,1.0634,1.0653,1.0679,1.069,1.0752,1.0728,1.0731,1.0749,1.0747,1.0776,1.0779,1.0785,1.0833,1.0842,1.0865,1.0827,1.0954,1.0957,1.0959,1.0978,1.0983,1.0988,0,0,0,0,0,1.0619,1.0658,1.0654,1.0664,1.0714,1.0754,1.076,1.0766,1.0751,1.0771,1.0784,1.0778,1.0857,1.0837,1.0847,1.0872,1.0952,1.0956,1.0959,1.0976,1.0982,1.0988,0,0,0,0,0,0,1.0636,1.0661,1.0658,1.0706,1.0728,1.0752,1.0777,1.0773,1.08,1.0797,1.0804,1.081,1.0855,1.0868,1.0846,1.0922,1.0903,1.0908,1.0912,1.0918,1.0923,1.0919,1.083,0,0,0,0,0,1.0645,1.0674,1.0695,1.0736,1.0747,1.076,1.0777,1.0779,1.0802,1.0812,1.0828,1.0851,1.0881,1.09,1.0929,1.098,1.0986,1.1002,1.1007,1.1011,1.1016,1.1042,1.105,1.0972,1.0972,1.0972,0,0,1.0665,1.0682,1.0701,1.074,1.0757,1.0787,1.0768,1.0801,1.0823,1.0817,1.0859,1.0872,1.0898,1.0945,1.0967,1.0958,1.1038,1.1016,1.1019,1.1021,1.1047,1.1054,1.1061,1.0975,1.0974,1.0974,0,0,1.0716,1.0732,1.0767,1.0784,1.081,1.0818,1.0826,1.0851,1.0859,1.0901,1.0896,1.0924,1.0975,1.0993,1.1009,1.1066,1.1061,1.1075,1.1101,1.1127,1.1133,1.1139,1.1158,1.1165,1.108,1.108,1.108,0,1.0737,1.0782,1.0786,1.0819,1.0836,1.0831,1.0866,1.0883,1.0917,1.0929,1.0918,1.0981,1.0999,1.1049,1.1063,1.1077,1.1086,1.1072,1.1132,1.1137,1.1143,1.1161,1.1168,1.1081,1.1081,1.1081,1.1081,0,1.0807,1.0837,1.0863,1.0894,1.0914,1.0949,1.0958,1.0978,1.0979,1.0988,1.1031,1.1051,1.1083,1.1095,1.1097,1.1146,1.1139,1.113,1.111,1.1151,1.1169,1.1176,1.1083,1.1083,1.1083,1.1082,0,0,1.087,1.0902,1.0912,1.0925,1.0952,1.0976,1.101,1.104,1.1057,1.108,1.1108,1.1151,1.1142,1.1161,1.1164,1.1187,1.1229,1.1175,1.1175,1.1183,1.1284,1.129,1.1298,1.1226,1.1228,1.1229,1.1281,0,1.0923,1.0981,1.0986,1.1039,1.1067,1.1062,1.1091,1.1111,1.1121,1.1146,1.1157,1.1187,1.1174,1.1184,1.1207,1.1219,1.1249,1.1216,1.1252,1.1254,1.1245,1.1307,1.1314,1.1362,1.1288,1.1289,1.129,0,1.0992,1.1016,1.1072,1.1093,1.1105,1.1132,1.1159,1.1184,1.1206,1.1211,1.1231,1.1231,1.1265,1.1244,1.1292,1.1269,1.1284,1.1292,1.1294,1.1298,1.1274,1.1311,1.1378,1.1385,1.1301,1.13,1.1299,0,1.1032,1.1078,1.1117,1.1129,1.1156,1.1174,1.1186,1.1207,1.1224,1.1248,1.126,1.1288,1.1304,1.1326,1.1333,1.1317,1.138,1.136,1.1385,1.1385,1.1398,1.1397,1.1468,1.141,1.1409,1.1409,1.1409,0,1.109,1.1124,1.1135,1.1158,1.1196,1.1201,1.1238,1.1249,1.1268,1.1293,1.1292,1.1316,1.1325,1.1351,1.1357,1.1395,1.1402,1.1407,1.1408,1.1407,1.1406,1.1417,1.1413,1.1411,1.1411,1.141,1.141,0,1.114,1.1149,1.119,1.1212,1.1218,1.1245,1.1263,1.1286,1.1295,1.1328,1.1336,1.135,1.138,1.1389,1.1427,1.1431,1.1474,1.1473,1.1467,1.1467,1.1491,1.1488,1.157,1.158,1.1516,1.1517,1.1517,0,1.1176,1.1201,1.1225,1.1242,1.1254,1.1282,1.1299,1.1305,1.1323,1.135,1.1369,1.1399,1.1423,1.1472,1.1485,1.1514,1.1512,1.1539,1.1517,1.1514,1.1512,1.1509,1.1512,1.1543,1.1544,1.1544,1.1545,0,1.1238,1.1241,1.1266,1.1292,1.1313,1.1334,1.1354,1.1368,1.1377,1.1398,1.1428,1.1446,1.1483,1.1513,1.1541,1.1554,1.1551,1.1552,1.1559,1.1557,1.1552,1.1554,1.1477,1.155,1.1549,1.1549,1.1549,1.1548,1.1282,1.1304,1.1324,1.1351,1.1367,1.1386,1.1408,1.1419,1.1444,1.1474,1.1476,1.1508,1.1529,1.1567,1.1581,1.1606,1.1599,1.161,1.1612,1.1614,1.1616,1.1548,1.1612,1.1612,1.1612,1.1612,1.1611,0,1.1343,1.1355,1.138,1.1408,1.143,1.1424,1.1447,1.1465,1.1493,1.1513,1.1536,1.157,1.1598,1.1614,1.1642,1.1659,1.1659,1.1667,1.1665,1.1668,1.1621,1.1612,1.1667,1.1667,1.1667,1.1667,1.1667,1.1667,1.1377,1.1414,1.1419,1.1463,1.1476,1.1507,1.152,1.1537,1.1552,1.159,1.1613,1.1623,1.1641,1.167,1.1695,1.1699,1.1709,1.1718,1.1721,1.1677,1.1671,1.1666,1.1657,1.172,1.172,1.1765,1.1765,1.1765]},{"header":{"parameterUnit":"m.s-1","parameterCategory":1,"la1":30.2991,"la2":30.254,"lo1":-89.0895,"lo2":-89.0444,"dy":0.0017,"dx":0.0017,"nx":28,"ny":28,"refTime":"2025-01-28T09:00:00:Z","depth":0,"parameterNumber":3,"parameterNumberName":"V-component_of_WINDS"},"data":[0,0,0,0,0,0,0,0,0,0,0,0,0,0,0,0,0,0,0,0,0,0,0,0,0,0,0,0,0,0,0,0,0,0,0,0,0,0,0,0,0,0,0,0,0,0,0,0,0,0,0,0,0,0,0,0,0,0,2.0277,2.0277,0,2.0241,2.0241,2.0241,2.025,2.0251,2.0252,2.0252,2.0209,2.0207,2.0206,0,0,0,0,0,0,0,0,0,0,0,0,0,2.0348,2.0347,2.0277,2.0277,2.0277,2.0242,2.0241,2.0241,2.025,2.0251,2.0252,2.0253,2.021,2.0208,2.0205,0,0,0,0,0,0,0,0,0,0,0,0,0,2.0315,2.0347,2.0277,2.0277,2.0277,2.0242,2.0241,2.024,2.025,2.0251,2.0252,2.0253,2.021,2.0208,2.0205,2.0166,0,0,2.0197,2.0196,0,0,0,0,0,0,0,0,2.0317,2.0313,2.0278,2.0277,2.0277,2.0252,2.025,2.0215,2.0249,2.026,2.0252,2.0253,2.0222,2.0218,2.0209,2.0164,2.0162,2.0197,2.0195,2.0194,2.0193,0,0,0,0,0,0,0,2.032,2.0314,2.0263,2.0277,2.0276,2.0277,2.0273,2.0244,2.0235,2.0259,2.026,2.0256,2.0222,2.0212,2.0208,2.0162,2.0197,2.0194,2.0192,2.0191,2.0082,2.0081,0,0,0,0,0,0,2.0323,2.0316,2.0264,2.0262,2.03,2.0275,2.0271,2.0258,2.0235,2.0233,2.0255,2.0256,2.0216,2.0211,2.0207,2.0159,2.0194,2.0191,2.019,2.0083,2.0082,2.008,0,0,0,0,0,0,2.0325,2.0318,2.0266,2.0289,2.0283,2.0272,2.0258,2.0257,2.0247,2.0232,2.023,2.0246,2.0216,2.021,2.0176,2.0157,2.019,2.0187,2.0085,2.0083,2.0081,2.0063,0,0,0,0,0,0,2.0327,2.0319,2.0305,2.0289,2.0281,2.0238,2.0257,2.0256,2.0243,2.0244,2.0224,2.0221,2.0217,2.018,2.0174,2.0154,2.0185,2.0086,2.0084,2.0082,2.0065,2.0061,2.0057,0,0,0,0,0,2.0329,2.03,2.0305,2.0298,2.0265,2.0237,2.0232,2.0229,2.0241,2.0227,2.0217,2.0222,2.0161,2.0177,2.0169,2.0149,2.0087,2.0084,2.0082,2.0067,2.0061,2.0057,0,0,0,0,0,0,2.0313,2.0298,2.0303,2.0268,2.0254,2.0238,2.022,2.0224,2.0204,2.0206,2.0202,2.0197,2.0162,2.0152,2.017,2.0109,2.0126,2.0121,2.0117,2.0112,2.0107,2.011,2.0183,0,0,0,0,0,2.0305,2.0286,2.0274,2.0244,2.0237,2.023,2.0218,2.0217,2.0201,2.0194,2.0182,2.0165,2.0142,2.0126,2.0104,2.0064,2.0059,2.0046,2.0042,2.0039,2.0034,2.0011,2.0005,2.0071,2.0071,2.0071,0,0,2.0289,2.0279,2.0267,2.0241,2.023,2.0208,2.0224,2.02,2.0183,2.019,2.0157,2.0148,2.0128,2.0091,2.0074,2.0081,2.0015,2.0035,2.0032,2.003,2.0007,2.0001,1.9996,2.0069,2.0069,2.007,0,0,2.0249,2.024,2.0214,2.0203,2.0187,2.0182,2.0176,2.016,2.0154,2.0122,2.0126,2.0105,2.0066,2.0051,2.0039,1.9993,1.9996,1.9986,1.9963,1.9941,1.9936,1.9931,1.9913,1.9907,1.9982,1.9982,1.9982,0,2.023,2.0199,2.02,2.0176,2.0164,2.0171,2.0144,2.0132,2.0108,2.0099,2.0109,2.0059,2.0046,2.0005,1.9994,1.9984,1.9975,1.9987,1.9937,1.9932,1.9928,1.9911,1.9904,1.9981,1.9981,1.9981,1.9981,0,2.0177,2.0155,2.0136,2.0115,2.0101,2.0075,2.007,2.0055,2.0056,2.005,2.0016,2.0001,1.9976,1.9967,1.9966,1.9925,1.993,1.9938,1.9954,1.992,1.9904,1.9898,1.9979,1.9979,1.998,1.998,0,0,2.0123,2.0104,2.0097,2.0087,2.007,2.0052,2.0026,2.0004,1.999,1.9974,1.9951,1.9917,1.9925,1.9911,1.9909,1.9889,1.9853,1.99,1.9899,1.989,1.9804,1.9797,1.979,1.9855,1.9854,1.9853,1.9805,0,2.008,2.0037,2.0037,1.9996,1.9975,1.9982,1.9959,1.9945,1.9938,1.9918,1.991,1.9886,1.9899,1.989,1.9871,1.9861,1.9835,1.9865,1.9831,1.983,1.9835,1.9782,1.9774,1.973,1.9799,1.9798,1.9797,0,2.0024,2.0008,1.9965,1.9951,1.9942,1.9922,1.9901,1.9882,1.9865,1.9862,1.9847,1.9848,1.9819,1.9838,1.9797,1.9817,1.9804,1.9797,1.9795,1.979,1.9811,1.9774,1.9716,1.9708,1.9788,1.9789,1.9789,0,1.9988,1.9955,1.9925,1.9917,1.99,1.9885,1.9877,1.9862,1.9848,1.9829,1.982,1.9797,1.9784,1.9765,1.9759,1.9774,1.9718,1.9737,1.9713,1.9713,1.9699,1.97,1.9636,1.9693,1.9693,1.9694,1.9694,0,1.9938,1.9912,1.9909,1.989,1.986,1.986,1.9829,1.9822,1.9808,1.9787,1.9791,1.977,1.9765,1.9743,1.9738,1.9704,1.9698,1.9693,1.9692,1.9692,1.9692,1.9682,1.9684,1.9692,1.9692,1.9692,1.9693,0,1.9892,1.9889,1.9857,1.9844,1.984,1.9818,1.9806,1.9787,1.9782,1.9755,1.9748,1.9739,1.9713,1.9706,1.9674,1.9671,1.9631,1.9633,1.9637,1.9636,1.9612,1.9614,1.9538,1.9528,1.9593,1.9592,1.9592,0,1.986,1.984,1.9825,1.9813,1.9804,1.9783,1.977,1.9768,1.9754,1.9734,1.9717,1.9692,1.9672,1.963,1.9618,1.9594,1.9595,1.957,1.9591,1.9591,1.9592,1.9593,1.959,1.9565,1.9565,1.9564,1.9564,0,1.9803,1.9803,1.9785,1.9765,1.975,1.9734,1.9719,1.9708,1.9704,1.9687,1.9662,1.9647,1.9616,1.959,1.9565,1.9554,1.9557,1.9558,1.955,1.9549,1.9552,1.9549,1.9624,1.9559,1.9559,1.956,1.956,1.956,1.9761,1.9744,1.9731,1.971,1.9699,1.9685,1.9667,1.966,1.964,1.9616,1.9616,1.9588,1.9571,1.9539,1.9527,1.9503,1.951,1.95,1.9497,1.9495,1.9492,1.9557,1.9499,1.9499,1.9499,1.9499,1.9499,0,1.9703,1.9696,1.9677,1.9657,1.964,1.9648,1.9631,1.9616,1.9592,1.9577,1.9558,1.9528,1.9504,1.9491,1.9466,1.945,1.945,1.9443,1.9443,1.944,1.9488,1.9496,1.9443,1.9443,1.9443,1.9443,1.9443,1.9443,1.9671,1.9641,1.964,1.9604,1.9596,1.957,1.956,1.9547,1.9535,1.9502,1.9483,1.9476,1.9461,1.9435,1.9412,1.9409,1.9399,1.939,1.9388,1.9432,1.9437,1.9443,1.945,1.9389,1.9389,1.9342,1.9342,1.9341]}]]